Weather History for Saranac Lake, NY

Change the Weather History Date:

Sunday, November 3, 2013

  Actual Average Record
Temperature  
Mean Temperature 22 °F 37 °F  
Max Temperature 31 °F 48 °F 69 °F (1950)
Min Temperature 12 °F 27 °F 3 °F (2002)
Degree Days  
Heating Degree Days 43 28  
Month to date heating degree days 81 83  
Since 1 July heating degree days 1328 1375  
Cooling Degree Days 0 0  
Month to date cooling degree days 0  
Year to date cooling degree days 114  
Moisture  
Dew Point 18 °F    
Average Humidity 75    
Maximum Humidity 96    
Minimum Humidity 53    
Precipitation  
Precipitation T in 0.12 in 1.60 in (1967)
Month to date precipitation 1.03 0.38  
Year to date precipitation 35.94 32.26  
Sea Level Pressure  
Sea Level Pressure 30.21 in    
Wind  
Wind Speed 5 mph (NNE)    
Max Wind Speed 15 mph    
Max Gust Speed 20 mph    
Visibility 10 miles    
Events      
T = Trace of Precipitation, MM = Missing Value Source: NWS Daily Summary

Daily Weather History Graph

Daily Weather History Graph

Search for Another Location

Airport:

Trip Planner

Search our weather history database for the weather conditions in past years. The results will help you decide how hot, cold, wet, or windy it might be!

Date:

Astronomy

Nov. 03, 2013 Rise Set
Actual Time 6:37 AM EST 4:43 PM EST
Civil Twilight 6:06 AM EST 5:13 PM EST
Nautical Twilight 5:32 AM EST 5:47 PM EST
Astronomical Twilight 4:58 AM EST 6:21 PM EST
Moon 6:38 AM EST (11/3) 4:54 PM EST (11/3)
Length of Visible Light 11h 07m
Length of Day
10h 06m
New Moon, 0% of the Moon is Illuminated
Nov 3
New Moon
Nov 10
First Quarter
Nov 17
Full
Nov 25
Last Quarter
Dec 2
New

Hourly Weather History & Observations

Time (EST) Temp. Windchill Dew Point Humidity Pressure Visibility Wind Dir Wind Speed Gust Speed Precip Events Conditions
12:51 AM 30.0 °F 21.7 °F 28.0 °F 92% 29.93 in 10.0 mi NNE 9.2 mph - N/A   Overcast
1:16 AM 30.2 °F 23.4 °F 26.6 °F 86% 29.90 in 10.0 mi North 6.9 mph - N/A   Overcast
1:51 AM 28.9 °F 20.4 °F 25.0 °F 85% 29.96 in 10.0 mi NNE 9.2 mph - N/A   Overcast
1:59 AM 28.4 °F 19.1 °F 24.8 °F 86% 29.92 in 10.0 mi NNE 10.4 mph - N/A   Overcast
1:51 AM 28.0 °F 18.1 °F 24.1 °F 85% 29.99 in 10.0 mi NNE 11.5 mph - N/A   Overcast
2:51 AM 26.1 °F 16.2 °F 21.0 °F 81% 30.01 in 10.0 mi NNE 10.4 mph - N/A   Overcast
3:51 AM 25.0 °F 14.8 °F 19.0 °F 78% 30.05 in 10.0 mi NNE 10.4 mph - N/A   Overcast
4:26 AM 24.8 °F 16.9 °F 19.4 °F 80% 30.02 in 10.0 mi NNE 6.9 mph - N/A   Overcast
4:51 AM 24.1 °F 16.0 °F 18.0 °F 77% 30.10 in 10.0 mi NNE 6.9 mph - N/A   Overcast
5:51 AM 21.9 °F 15.7 °F 19.0 °F 89% 30.13 in 10.0 mi North 4.6 mph - N/A   Clear
6:51 AM 21.9 °F 15.7 °F 18.0 °F 85% 30.16 in 10.0 mi North 4.6 mph - N/A   Clear
7:51 AM 23.0 °F - 19.0 °F 85% 30.21 in 10.0 mi Calm Calm - N/A   Clear
8:51 AM 26.1 °F 16.2 °F 18.0 °F 71% 30.22 in 10.0 mi NE 10.4 mph - N/A   Clear
9:51 AM 26.1 °F 16.2 °F 18.0 °F 71% 30.24 in 10.0 mi NNE 10.4 mph - N/A   Scattered Clouds
10:00 AM 26.6 °F 21.2 °F 17.6 °F 69% 30.18 in 10.0 mi North 4.6 mph - N/A   Mostly Cloudy
10:29 AM 26.6 °F 19.1 °F 17.6 °F 69% 30.19 in 10.0 mi NNE 6.9 mph - N/A   Scattered Clouds
10:51 AM 28.0 °F 18.6 °F 17.1 °F 63% 30.26 in 10.0 mi NE 10.4 mph - N/A   Mostly Cloudy
11:20 AM 28.4 °F 20.4 °F 17.6 °F 64% 30.19 in 10.0 mi NNE 8.1 mph - N/A   Scattered Clouds
11:51 AM 27.0 °F 19.5 °F 16.0 °F 63% 30.26 in 10.0 mi North 6.9 mph - N/A   Mostly Cloudy
11:58 AM 28.4 °F 20.4 °F 17.6 °F 64% 30.20 in 10.0 mi NNE 8.1 mph - N/A   Mostly Cloudy
12:26 PM 28.4 °F 23.3 °F 17.6 °F 64% 30.20 in 10.0 mi North 4.6 mph - N/A   Mostly Cloudy
12:51 PM 30.0 °F 25.2 °F 18.0 °F 61% 30.27 in 10.0 mi Variable 4.6 mph - N/A   Mostly Cloudy
1:51 PM 30.0 °F 22.4 °F 18.0 °F 61% 30.30 in 10.0 mi NW 8.1 mph - N/A   Mostly Cloudy
2:51 PM 30.9 °F 27.5 °F 15.1 °F 52% 30.32 in 10.0 mi Variable 3.5 mph - 0.00 in   Mostly Cloudy
3:51 PM 28.9 °F 22.8 °F 14.0 °F 54% 30.34 in 10.0 mi North 5.8 mph - N/A   Clear
4:51 PM 27.0 °F 23.0 °F 14.0 °F 58% 30.36 in 10.0 mi North 3.5 mph - N/A   Clear
5:51 PM 21.9 °F - 17.1 °F 82% 30.40 in 10.0 mi Calm Calm - N/A   Clear
6:51 PM 19.0 °F - 16.0 °F 88% 30.43 in 10.0 mi Calm Calm - N/A   Clear
7:51 PM 17.1 °F - 15.1 °F 92% 30.45 in 10.0 mi Calm Calm - N/A   Partly Cloudy
8:51 PM 16.0 °F - 14.0 °F 92% 30.47 in 10.0 mi Calm Calm - N/A   Scattered Clouds
9:51 PM 14.0 °F - 12.0 °F 92% 30.49 in 10.0 mi Calm Calm - N/A   Clear
10:51 PM 14.0 °F - 10.9 °F 88% 30.49 in 10.0 mi Calm Calm - N/A   Clear